Waarnemingen

Advertentie
Mijn weer
St-Girons, Frankrijk (7627): temperatuur & dauwpunt: 18.02.2017 09:00:00 - 24.02.2017 09:00:00 (CET)St-Girons, Frankrijk (7627): temperatuur 5cm: 18.02.2017 09:00:00 - 24.02.2017 09:00:00 (CET)St-Girons, Frankrijk (7627): temperatuur -20cm & temperatuur -100cm: 18.02.2017 09:00:00 - 24.02.2017 09:00:00 (CET)St-Girons, Frankrijk (7627): windsnelheid & windstoten: 18.02.2017 09:00:00 - 24.02.2017 09:00:00 (CET)St-Girons, Frankrijk (7627): windrichting: 18.02.2017 09:00:00 - 24.02.2017 09:00:00 (CET)St-Girons, Frankrijk (7627): luchtdruk: 18.02.2017 09:00:00 - 24.02.2017 09:00:00 (CET)St-Girons, Frankrijk (7627): zicht: 18.02.2017 09:00:00 - 24.02.2017 09:00:00 (CET)St-Girons, Frankrijk (7627): Zonneschijnduur: 18.02.2017 09:00:00 - 24.02.2017 09:00:00 (CET)St-Girons, Frankrijk (7627): neerslag: 18.02.2017 09:00:00 - 24.02.2017 09:00:00 (CET)
Datum & Tijd tt [°C] td [°C] tt 5cm [°C] tt -20cm [°C] tt -100cm [°C] ff [km/u] ff [kn] fx [km/u] fx [kn] dd ppp [hPa] vv [km] sd [min] rr [mm]
24.02.2017 09:00:00 6,0 4,6 5,6 8,5 8,4 11 6 25 14 W 1019,1 14 0 0,2
24.02.2017 08:00:00 7,7 6,9 6,9 8,8 8,4 12 6 27 15 WNW 1018,1 13 0 0,6
24.02.2017 07:00:00 7,7 7,3 7,3 8,6 8,4 10 6 21 12 NNW 1018,2 1,2 0 0,6
24.02.2017 06:00:00 7,8 6,7 4,5 8,0 8,4 4 2 8 5 ZZO 1017,4 5 0 0,0
24.02.2017 05:00:00 7,6 6,4 4,8 8,9 8,4 2 1 14 8 WNW 1017,0 4,9 0 0,0
24.02.2017 04:00:00 8,7 7,1 8,3 8,6 8,4 9 5 17 9 NW 1016,8 7 0 0,0
24.02.2017 03:00:00 8,6 7,1 8,0 8,7 8,4 5 3 8 5 WZW 1017,4 8 0 0,0
24.02.2017 02:00:00 8,8 7,1 8,2 7,8 8,4 2 1 12 7 NNW 1017,4 8 0 0,0
24.02.2017 01:00:00 9,1 7,2 8,7 8,7 8,4 12 6 19 10 WNW 1018,1 8 0 0,0
24.02.2017 00:00:00 9,2 7,3 8,6 8,6 8,4 6 3 14 8 WNW 1018,3 8 0 0,0
23.02.2017 23:00:00 9,2 7,6 8,7 8,7 8,4 5 3 16 9 W 1018,6 4,3 0 0,0
23.02.2017 22:00:00 9,5 7,4 9,0 8,7 8,4 8 4 13 7 WNW 1017,8 4,7 0 0,0
23.02.2017 21:00:00 9,5 7,6 9,2 8,5 8,4 3 2 12 6 NW 1017,2 6 0 0,0
23.02.2017 20:00:00 9,6 7,5 9,3 8,4 8,4 7 4 18 10 NNW 1017,0 7 0 0,0
23.02.2017 19:00:00 10,1 7,5 9,1 8,2 8,4 10 6 19 10 NNW 1016,3 11 0 0,0
23.02.2017 18:00:00 11,0 7,5 10,3 8,1 8,4 13 7 20 11 NNW 1015,3 14 0 0,0
23.02.2017 17:00:00 13,6 7,8 13,3 8,0 8,4 12 7 22 12 NNW 1014,2 17 0 0,0
23.02.2017 16:00:00 16,6 5,8 16,1 8,0 8,4 8 4 16 9 N 1013,3 20 19 0,0
23.02.2017 15:00:00 18,8 3,8 18,6 8,0 8,4 9 5 16 9 NW 1013,1 19 13 0,0
23.02.2017 14:00:00 18,7 2,1 21,7 8,0 8,4 10 5 21 11 NNW 1013,9 20 57 0,0
23.02.2017 13:00:00 17,9 2,6 21,7 7,9 8,4 7 4 13 7 NW 1014,6 20 23 0,0
23.02.2017 12:00:00 16,5 0,2 19,6 7,9 8,4 0 0 5 3 N 1015,5 20 38 0,0
23.02.2017 11:00:00 13,2 2,1 16,1 8,0 8,3 2 1 5 3 ONO 1016,0 20 60 0,0
23.02.2017 10:00:00 9,8 1,4 6,5 8,1 8,4 0 0 7 4 N 1016,4 20 55 0,0
23.02.2017 09:00:00 4,5 1,2 -0,8 8,2 8,3 5 3 11 6 NW 1016,9 20 31 0,0
23.02.2017 08:00:00 1,8 -0,1 -1,4 8,3 8,4 2 1 11 6 Z 1017,1 20 0 0,0
23.02.2017 07:00:00 3,0 -0,6 -1,3 8,4 8,4 4 2 9 5 ZZO 1017,2 20 0 0,0
23.02.2017 06:00:00 3,5 -0,3 -1,1 8,4 8,4 0 0 8 4 N 1017,3 20 0 0,0
23.02.2017 05:00:00 2,9 0,6 -1,0 8,5 8,4 3 2 12 6 WZW 1017,5 19 0 0,0
23.02.2017 04:00:00 2,3 0,7 -1,2 8,6 8,4 0 0 9 5 N 1018,1 20 0 0,0
23.02.2017 03:00:00 4,7 3,0 -0,7 8,6 8,4 2 1 8 4 Z 1018,6 20 0 0,0
23.02.2017 02:00:00 5,2 2,5 -0,1 8,7 8,4 0 0 9 5 N 1019,0 20 0 0,0
23.02.2017 01:00:00 6,3 2,4 1,7 8,7 8,3 4 2 16 9 ZZW 1019,2 20 0 0,0
23.02.2017 00:00:00 7,6 2,7 4,5 8,7 8,4 12 7 24 13 ZO 1019,5 20 0 0,0
22.02.2017 23:00:00 6,9 3,0 3,3 8,7 8,3 10 5 21 11 ZZO 1020,3 20 0 0,0
22.02.2017 22:00:00 9,7 3,6 4,2 8,6 8,3 16 9 26 14 ZO 1020,4 20 0 0,0
22.02.2017 21:00:00 7,6 4,7 3,8 8,6 8,3 7 4 11 6 ZO 1021,1 19 0 0,0
22.02.2017 20:00:00 9,1 6,0 5,2 8,5 8,3 3 2 6 4 Z 1021,1 20 0 0,0
22.02.2017 19:00:00 11,6 6,1 7,2 8,4 8,3 3 2 12 7 W 1020,4 20 3 0,0
22.02.2017 18:00:00 - - - - - - - - - - - - - -
22.02.2017 17:00:00 17,9 7,0 22,4 8,0 8,3 6 3 13 7 NNO 1019,2 20 60 0,0
22.02.2017 16:00:00 - - - - - - - - - - - - - -
22.02.2017 15:00:00 18,6 7,4 24,1 7,8 8,3 4 2 11 6 NW 1020,0 20 60 0,0
22.02.2017 14:00:00 17,7 8,8 - - - 5 3 11 6 ZZO 1020,9 19 - 0,0
22.02.2017 13:00:00 16,7 8,4 21,8 7,7 8,3 3 1 13 7 Z 1022,0 20 60 0,0
22.02.2017 12:00:00 14,4 7,9 17,8 7,8 8,3 2 1 13 7 O 1023,1 18 60 0,0
22.02.2017 11:00:00 11,8 6,7 13,6 7,8 8,3 8 4 14 8 ZZO 1023,9 20 60 0,0
22.02.2017 10:00:00 8,4 3,8 - - - 9 5 21 11 OZO 1024,7 20 - -
22.02.2017 09:00:00 5,8 2,4 2,9 8,0 8,3 12 6 23 13 ZO 1025,4 20 28 0,0
22.02.2017 08:00:00 4,4 1,8 1,3 8,1 8,3 14 7 26 14 ZO 1025,4 20 0 0,0
22.02.2017 07:00:00 3,7 2,5 -3,2 8,2 8,3 11 6 17 9 ZO 1025,3 20 0 0,0
22.02.2017 06:00:00 -0,8 -1,6 -3,2 8,2 8,3 6 3 7 4 WNW 1026,3 3,2 0 0,0
22.02.2017 05:00:00 1,9 1,2 -2,0 8,3 8,3 3 1 8 5 ZO 1026,1 19 0 0,0
22.02.2017 04:00:00 3,1 2,1 -1,0 8,4 8,3 3 1 12 7 O 1026,5 20 0 0,0
22.02.2017 03:00:00 3,0 2,6 -1,0 8,5 8,3 4 2 8 4 Z 1027,0 7 0 0,0
22.02.2017 02:00:00 2,6 2,2 -1,1 8,5 8,3 0 0 5 3 N 1027,1 0,3 0 0,0
22.02.2017 01:00:00 3,6 3,2 -0,9 8,5 8,3 0 0 6 4 N 1026,9 2,6 0 0,0
22.02.2017 00:00:00 4,6 4,2 0,7 8,5 8,3 2 1 6 3 Z 1026,9 9 0 0,0
21.02.2017 23:00:00 4,4 3,5 0,7 8,5 8,3 0 0 8 5 N 1026,8 11 0 0,0
21.02.2017 22:00:00 5,0 3,7 1,4 8,5 8,3 4 2 7 4 ZZO 1026,9 16 0 0,0
21.02.2017 21:00:00 6,7 4,5 2,6 8,5 8,3 4 2 6 4 Z 1026,7 20 0 0,0
21.02.2017 20:00:00 7,0 4,3 3,8 8,3 8,2 0 0 5 3 N 1026,5 20 0 0,0
21.02.2017 19:00:00 10,3 6,3 5,5 8,2 8,3 2 1 10 6 W 1025,6 20 4 0,0
21.02.2017 18:00:00 12,7 6,5 11,5 8,1 8,2 7 4 16 8 NNW 1024,7 7 30 0,0
21.02.2017 17:00:00 14,8 6,6 16,1 8,0 8,2 8 4 18 10 NNW 1024,2 20 51 0,0
21.02.2017 16:00:00 15,7 5,3 20,8 7,9 8,2 7 4 14 8 NNW 1024,1 20 60 0,0
21.02.2017 15:00:00 15,2 5,4 20,6 7,8 8,2 5 3 12 6 WNW 1024,7 20 60 0,0
21.02.2017 14:00:00 15,5 7,0 20,5 7,7 8,2 2 1 14 8 N 1025,5 19 60 0,0
21.02.2017 13:00:00 13,3 5,0 19,7 7,7 8,2 4 2 11 6 NW 1026,8 18 60 0,0
21.02.2017 12:00:00 12,2 4,7 16,5 7,7 8,2 4 2 10 5 N 1027,7 20 60 0,0
21.02.2017 11:00:00 9,8 3,7 14,2 7,8 8,2 6 3 10 5 ZZO 1028,2 19 60 0,0
21.02.2017 10:00:00 7,7 2,8 6,6 7,7 8,2 3 2 9 5 O 1029,0 20 60 0,0
21.02.2017 09:00:00 4,7 2,1 -1,2 7,9 8,2 4 2 13 7 OZO 1029,4 20 25 0,0
21.02.2017 08:00:00 0,0 -1,4 -1,3 8,0 8,2 3 1 24 13 W 1029,6 9 0 0,0
21.02.2017 07:00:00 4,1 1,5 0,0 8,0 8,2 15 8 23 12 ZO 1028,3 20 0 0,0
21.02.2017 06:00:00 2,8 1,3 -0,4 8,2 8,2 10 5 15 8 ZO 1029,1 19 0 0,0
21.02.2017 05:00:00 1,9 0,7 -1,1 8,2 8,2 8 4 13 7 ZZO 1029,9 18 0 0,0
21.02.2017 04:00:00 3,0 1,0 -0,3 8,3 8,2 7 4 16 9 Z 1029,6 17 0 0,0
21.02.2017 03:00:00 3,3 1,5 0,6 8,3 8,2 3 2 14 7 Z 1030,0 15 0 0,0
21.02.2017 02:00:00 2,7 1,4 -0,6 8,3 8,2 6 4 9 5 Z 1030,4 15 0 0,0
21.02.2017 01:00:00 4,0 1,7 1,1 8,4 8,2 0 0 10 5 N 1029,8 12 0 0,0
21.02.2017 00:00:00 5,6 3,8 4,9 8,3 8,2 2 1 7 4 Z 1029,8 16 0 0,0
20.02.2017 23:00:00 5,5 3,7 4,6 8,2 8,2 0 0 7 4 N 1030,4 15 0 0,0
20.02.2017 22:00:00 5,0 4,0 0,1 8,3 8,2 6 3 8 4 Z 1030,6 13 0 0,0
20.02.2017 21:00:00 5,0 2,7 1,3 8,2 8,2 0 0 4 2 N 1030,2 20 0 0,0
20.02.2017 20:00:00 6,4 3,4 2,2 8,1 8,2 2 1 6 3 WNW 1029,5 20 0 0,0
20.02.2017 19:00:00 7,8 3,6 4,1 8,1 8,2 3 2 15 8 N 1028,8 20 2 0,0
20.02.2017 18:00:00 10,6 4,1 10,8 8,1 8,2 7 4 15 8 N 1027,8 20 60 0,0
20.02.2017 17:00:00 12,4 4,4 16,0 8,0 8,2 6 4 18 10 N 1027,1 20 60 0,0
20.02.2017 16:00:00 12,6 4,0 17,0 7,8 8,2 10 5 17 9 NNW 1027,2 20 60 0,0
20.02.2017 15:00:00 12,7 3,9 15,4 7,7 8,2 10 5 22 12 NNW 1027,5 20 53 0,0
20.02.2017 14:00:00 12,0 4,5 12,7 7,7 8,2 8 4 17 9 NNW 1028,4 20 49 0,0
20.02.2017 13:00:00 10,8 3,6 13,8 7,6 8,2 8 4 18 10 NW 1029,2 20 47 0,0
20.02.2017 12:00:00 10,4 4,1 12,7 7,8 8,2 6 4 13 7 N 1029,6 19 34 0,0
20.02.2017 11:00:00 9,3 4,1 11,4 7,6 8,2 4 2 9 5 N 1029,9 18 22 0,0
20.02.2017 10:00:00 7,7 3,7 7,1 7,5 8,2 0 0 7 4 N 1030,2 20 0 0,0
20.02.2017 09:00:00 6,2 3,4 5,5 7,6 8,2 3 1 12 7 ZO 1030,2 20 0 0,0
20.02.2017 08:00:00 5,6 3,4 5,4 7,5 8,2 8 4 10 5 ZZO 1030,2 20 0 0,0
20.02.2017 07:00:00 5,9 3,4 5,6 7,8 8,2 4 2 6 4 ZZO 1029,9 20 0 0,0
20.02.2017 06:00:00 7,0 5,8 6,5 7,8 8,2 2 1 13 7 Z 1029,4 9 0 0,0
20.02.2017 05:00:00 7,1 5,9 6,0 7,8 8,2 8 4 13 7 W 1029,4 9 0 0,0
20.02.2017 04:00:00 6,2 5,0 3,5 7,7 8,2 2 1 8 4 W 1029,5 15 0 0,0
20.02.2017 03:00:00 6,6 4,6 4,4 7,8 8,2 0 0 8 5 N 1029,5 13 0 0,0
20.02.2017 02:00:00 6,6 5,1 4,7 7,8 8,2 3 2 14 8 OZO 1030,0 14 0 0,0
20.02.2017 01:00:00 5,4 3,9 2,1 7,9 8,2 3 2 8 4 WZW 1030,2 18 0 0,0
20.02.2017 00:00:00 5,9 3,2 2,5 7,8 8,2 0 0 6 4 N 1029,9 20 0 0,0
19.02.2017 23:00:00 7,1 4,2 5,4 7,9 8,2 3 1 6 3 ZO 1030,0 19 0 0,0
19.02.2017 22:00:00 6,0 3,7 1,5 8,0 8,2 4 2 7 4 ZW 1029,8 20 0 0,0
19.02.2017 21:00:00 5,5 3,0 1,5 7,8 8,2 2 1 9 5 ZZO 1029,2 20 0 0,0
19.02.2017 20:00:00 7,3 2,8 2,5 7,8 8,2 0 0 7 4 N 1028,5 20 0 0,0
19.02.2017 19:00:00 8,9 2,9 3,9 7,7 8,2 5 3 14 7 ZW 1027,8 20 0 0,0
19.02.2017 18:00:00 11,9 3,4 11,1 7,6 8,2 9 5 23 13 NW 1026,9 20 60 0,0
19.02.2017 17:00:00 13,6 3,1 15,3 7,5 8,2 14 8 26 14 NW 1026,7 20 60 0,0
19.02.2017 16:00:00 14,2 2,4 17,5 7,4 8,1 15 8 26 14 NNW 1026,5 19 60 0,0
19.02.2017 15:00:00 14,2 3,9 18,0 7,3 8,1 14 7 26 14 NNW 1026,4 20 60 0,0
19.02.2017 14:00:00 12,8 4,5 17,3 7,3 8,2 15 8 23 12 NW 1027,0 19 60 0,0
19.02.2017 13:00:00 11,2 6,1 16,2 7,3 8,2 4 2 13 7 NNO 1028,1 13 60 0,0
19.02.2017 12:00:00 8,6 5,3 10,4 7,4 8,2 2 1 10 5 ZO 1029,3 10 41 0,0
19.02.2017 11:00:00 5,4 5,1 5,9 7,3 8,2 2 1 7 4 NO 1030,1 6 4 0,0
19.02.2017 10:00:00 3,9 3,9 3,1 7,2 8,1 2 1 8 4 ZZW 1029,9 1,8 0 0,0
19.02.2017 09:00:00 2,4 2,4 -1,5 7,1 8,1 5 3 7 4 Z 1029,6 2,8 0 0,0
19.02.2017 08:00:00 -0,5 -0,8 -4,2 7,5 8,2 0 0 6 4 N 1029,5 0,1 0 0,0
19.02.2017 07:00:00 0,2 -0,1 -3,8 7,9 8,2 2 1 5 3 WNW 1028,5 4,4 0 0,0
19.02.2017 06:00:00 1,7 1,4 -3,4 8,0 8,2 0 0 2 1 N 1027,3 12 0 0,0
19.02.2017 05:00:00 1,3 0,7 -2,6 7,8 8,2 0 0 4 2 N 1026,6 10 0 0,0
19.02.2017 04:00:00 1,7 1,3 -2,4 7,9 8,1 0 0 3 2 N 1026,1 4,8 0 0,0
19.02.2017 03:00:00 2,4 1,4 -2,0 7,9 8,1 2 1 4 2 OZO 1025,8 19 0 0,0
19.02.2017 02:00:00 2,4 1,4 -1,6 8,1 8,2 2 1 3 1 WNW 1025,5 16 0 0,0
19.02.2017 01:00:00 3,4 2,2 -0,8 7,9 8,1 0 0 4 2 N 1024,9 20 0 0,0
19.02.2017 00:00:00 4,1 3,2 -0,3 8,1 8,1 2 1 4 2 ZW 1024,7 20 0 0,0
18.02.2017 23:00:00 5,3 3,9 0,6 8,2 8,1 0 0 3 2 N 1024,1 20 0 0,0
18.02.2017 22:00:00 6,1 3,6 1,5 8,0 8,1 2 1 7 4 ZZW 1023,3 20 0 0,0
18.02.2017 21:00:00 7,5 3,7 3,6 8,0 8,2 3 2 10 5 ZO 1023,0 20 0 0,0
18.02.2017 20:00:00 9,4 4,0 5,5 8,0 8,1 5 3 8 5 Z 1022,1 20 0 0,0
18.02.2017 19:00:00 11,6 4,3 7,2 7,8 8,1 2 1 11 6 N 1021,3 20 9 0,0
18.02.2017 18:00:00 13,8 2,4 13,6 7,7 8,1 8 4 17 9 NO 1020,3 20 56 0,0
18.02.2017 17:00:00 15,3 3,1 16,7 7,6 8,1 10 5 19 11 NNO 1019,5 18 60 0,0
18.02.2017 16:00:00 16,5 2,1 21,3 7,4 8,1 8 4 16 9 NNO 1019,2 20 60 0,0
18.02.2017 15:00:00 16,8 2,8 22,4 7,3 8,1 6 4 17 9 NNO 1019,1 20 60 0,0
18.02.2017 14:00:00 16,4 2,8 22,2 7,3 8,1 8 4 16 9 NO 1019,6 20 60 0,0
18.02.2017 13:00:00 15,8 2,9 21,9 7,3 8,1 4 2 11 6 NW 1020,7 20 60 0,0
18.02.2017 12:00:00 14,9 4,3 18,1 7,4 8,1 4 2 9 5 ZZO 1021,6 20 60 0,0
18.02.2017 11:00:00 11,7 1,3 12,4 7,4 8,1 4 2 15 8 ZO 1022,5 20 60 0,0
18.02.2017 10:00:00 6,9 2,4 0,9 7,2 8,1 4 2 11 6 Z 1023,4 20 26 0,0
18.02.2017 09:00:00 1,3 0,0 -1,9 7,8 8,1 0 0 12 6 N 1024,6 20 0 0,0

tt = temperatuur
td = dauwpunt
tt 5cm = temperatuur 5cm
tt -20cm = temperatuur -20cm
tt -100cm = temperatuur -100cm
ff = windsnelheid
fx = windstoten
dd = windrichting
ppp = luchtdruk
vv = zicht
sd = Zonneschijnduur
rr = neerslag

Weerstations in de omgeving